VOE1NW LFLL-LEMD

Flight info

Callsign VOE1NW
Flight time 1h 25m
Altitude 37000
Route REPSI DCT MINSO DCT AGN DCT TIVLI N869 ZAR Z245 TERSA
Aircraft A319/M-SDFGIJ1RWY/LB1

Departure

Time 2026-05-06 06:26
Airport Lyon Saint-Exupéry Airport (LFLL)

Arrival

Time 2026-05-06 07:51
Airport Adolfo Suárez Madrid–Barajas Airport (LEMD)
Time Latitude Longitude Altitude Speed Heading
2026-05-06 06:06 45.71580 5.08322 802 ft 0 kts 195°
2026-05-06 06:17 45.71585 5.08324 801 ft 4 kts 195°
2026-05-06 06:18 45.71611 5.08334 801 ft 4 kts 195°
2026-05-06 06:18 45.71637 5.08344 800 ft 4 kts 193°
2026-05-06 06:18 45.71663 5.08351 800 ft 4 kts 174°
2026-05-06 06:18 45.71679 5.08342 800 ft 1 kts 85°
2026-05-06 06:19 45.71679 5.08341 800 ft 0 kts 85°
2026-05-06 06:19 45.71679 5.08342 800 ft 0 kts 85°
2026-05-06 06:20 45.71681 5.08379 800 ft 7 kts 85°
2026-05-06 06:20 45.71693 5.08463 802 ft 10 kts 57°
2026-05-06 06:21 45.71767 5.08485 802 ft 14 kts 355°
2026-05-06 06:21 45.71880 5.08471 802 ft 19 kts 355°
2026-05-06 06:21 45.72031 5.08454 802 ft 24 kts 355°
2026-05-06 06:21 45.72214 5.08431 800 ft 29 kts 355°
2026-05-06 06:22 45.72438 5.08405 797 ft 35 kts 355°
2026-05-06 06:22 45.72688 5.08372 791 ft 36 kts 355°
2026-05-06 06:22 45.72923 5.08348 789 ft 32 kts 355°
2026-05-06 06:22 45.73140 5.08323 786 ft 30 kts 354°
2026-05-06 06:23 45.73341 5.08294 782 ft 28 kts 355°
2026-05-06 06:23 45.73529 5.08272 780 ft 26 kts 355°
2026-05-06 06:23 45.73699 5.08254 777 ft 24 kts 356°
2026-05-06 06:23 45.73859 5.08235 776 ft 22 kts 354°
2026-05-06 06:24 45.74001 5.08214 774 ft 20 kts 359°
2026-05-06 06:24 45.74129 5.08249 771 ft 18 kts 14°
2026-05-06 06:24 45.74240 5.08289 772 ft 15 kts 14°
2026-05-06 06:24 45.74333 5.08345 771 ft 15 kts 46°
2026-05-06 06:25 45.74362 5.08492 772 ft 15 kts 87°
2026-05-06 06:25 45.74329 5.08628 773 ft 15 kts 146°
2026-05-06 06:25 45.73725 5.08714 776 ft 104 kts 176°
2026-05-06 06:26 45.72808 5.08796 792 ft 157 kts 175°
2026-05-06 06:26 45.71669 5.08958 1335 ft 160 kts 175°
2026-05-06 06:26 45.70588 5.09137 2183 ft 156 kts 176°
2026-05-06 06:26 45.69478 5.09293 2788 ft 170 kts 178°
2026-05-06 06:27 45.68223 5.09453 3246 ft 192 kts 178°
2026-05-06 06:27 45.66806 5.09634 3702 ft 216 kts 177°
2026-05-06 06:27 45.65221 5.09833 4239 ft 241 kts 177°
2026-05-06 06:27 45.63468 5.10050 4919 ft 263 kts 177°
2026-05-06 06:28 45.61622 5.10299 5793 ft 269 kts 176°
2026-05-06 06:28 45.59751 5.10566 6721 ft 271 kts 176°
2026-05-06 06:28 45.57864 5.10839 7610 ft 274 kts 176°
2026-05-06 06:28 45.55957 5.11119 8528 ft 277 kts 175°
2026-05-06 06:29 45.54031 5.11403 9458 ft 281 kts 175°
2026-05-06 06:29 45.52066 5.11696 10148 ft 292 kts 175°
2026-05-06 06:29 45.49965 5.12007 10438 ft 315 kts 175°
2026-05-06 06:29 45.47704 5.12342 10672 ft 338 kts 175°
2026-05-06 06:30 45.45304 5.12697 11098 ft 352 kts 175°
2026-05-06 06:30 45.42846 5.13061 11788 ft 357 kts 175°
2026-05-06 06:30 45.40360 5.13430 12519 ft 361 kts 175°
2026-05-06 06:30 45.37847 5.13804 13259 ft 365 kts 175°
2026-05-06 06:31 45.35310 5.14181 13960 ft 369 kts 175°
2026-05-06 06:31 45.32751 5.14563 14633 ft 372 kts 175°
2026-05-06 06:31 45.30168 5.14951 15304 ft 374 kts 175°
2026-05-06 06:31 45.27570 5.15343 15969 ft 377 kts 175°
2026-05-06 06:32 45.24948 5.15741 16628 ft 380 kts 175°
2026-05-06 06:32 45.22305 5.16142 17278 ft 383 kts 175°
2026-05-06 06:32 45.19643 5.16548 17939 ft 387 kts 175°
2026-05-06 06:32 45.16960 5.16957 18533 ft 390 kts 175°
2026-05-06 06:33 45.14253 5.17371 19090 ft 393 kts 175°
2026-05-06 06:33 45.11521 5.17734 19641 ft 395 kts 180°
2026-05-06 06:33 45.08804 5.17255 20162 ft 396 kts 197°
2026-05-06 06:33 45.06294 5.15651 20696 ft 398 kts 213°
2026-05-06 06:34 45.04224 5.13040 21201 ft 403 kts 230°
2026-05-06 06:34 45.02806 5.09622 21709 ft 408 kts 247°
2026-05-06 06:34 45.01849 5.05826 22205 ft 411 kts 249°
2026-05-06 06:34 45.00910 5.02004 22665 ft 414 kts 249°
2026-05-06 06:35 44.99963 4.98137 23113 ft 418 kts 249°
2026-05-06 06:35 44.99019 4.94298 23541 ft 421 kts 249°
2026-05-06 06:35 44.98053 4.90387 23938 ft 423 kts 249°
2026-05-06 06:35 44.97077 4.86457 24353 ft 425 kts 249°
2026-05-06 06:36 44.96096 4.82516 24780 ft 426 kts 249°
2026-05-06 06:36 44.95111 4.78572 25203 ft 427 kts 249°
2026-05-06 06:36 44.94121 4.74606 25615 ft 428 kts 248°
2026-05-06 06:36 44.93127 4.70639 26014 ft 430 kts 248°
2026-05-06 06:37 44.92128 4.66670 26392 ft 431 kts 248°
2026-05-06 06:37 44.91122 4.62674 26772 ft 432 kts 248°
2026-05-06 06:37 44.90115 4.58678 27134 ft 433 kts 248°
2026-05-06 06:37 44.89103 4.54665 27495 ft 435 kts 248°
2026-05-06 06:38 44.88087 4.50642 27842 ft 436 kts 248°
2026-05-06 06:38 44.87068 4.46606 28168 ft 437 kts 248°
2026-05-06 06:38 44.86044 4.42563 28478 ft 439 kts 248°
2026-05-06 06:38 44.85017 4.38520 28913 ft 437 kts 248°
2026-05-06 06:39 44.83993 4.34500 29399 ft 435 kts 248°
2026-05-06 06:39 44.82972 4.30497 29876 ft 433 kts 248°
2026-05-06 06:39 44.81952 4.26508 30257 ft 432 kts 248°
2026-05-06 06:39 44.80933 4.22535 30627 ft 431 kts 248°
2026-05-06 06:40 44.79911 4.18566 30991 ft 430 kts 248°
2026-05-06 06:40 44.78893 4.14607 31344 ft 430 kts 248°
2026-05-06 06:40 44.77878 4.10661 31697 ft 429 kts 248°
2026-05-06 06:40 44.76861 4.06712 32047 ft 429 kts 248°
2026-05-06 06:41 44.75844 4.02770 32400 ft 428 kts 248°
2026-05-06 06:41 44.74825 3.98823 32750 ft 428 kts 248°
2026-05-06 06:41 44.73809 3.94896 33104 ft 428 kts 248°
2026-05-06 06:41 44.72790 3.90963 33464 ft 427 kts 248°
2026-05-06 06:42 44.71775 3.87043 33819 ft 427 kts 248°
2026-05-06 06:42 44.70757 3.83129 34128 ft 426 kts 248°
2026-05-06 06:42 44.69735 3.79223 34405 ft 426 kts 248°
2026-05-06 06:42 44.68709 3.75302 34662 ft 427 kts 248°
2026-05-06 06:43 44.67686 3.71394 34927 ft 427 kts 248°
2026-05-06 06:43 44.66663 3.67477 35183 ft 427 kts 248°
2026-05-06 06:43 44.65639 3.63561 35439 ft 427 kts 248°
2026-05-06 06:43 44.64613 3.59652 35681 ft 427 kts 248°
2026-05-06 06:44 44.63581 3.55733 35933 ft 427 kts 248°
2026-05-06 06:44 44.62551 3.51818 36171 ft 427 kts 248°
2026-05-06 06:44 44.61521 3.47910 36407 ft 427 kts 248°
2026-05-06 06:44 44.60486 3.43993 36634 ft 428 kts 248°
2026-05-06 06:45 44.59451 3.40087 36845 ft 428 kts 248°
2026-05-06 06:45 44.57361 3.32246 36925 ft 429 kts 248°
2026-05-06 06:46 44.55267 3.24404 36931 ft 430 kts 248°
2026-05-06 06:46 44.53180 3.16566 36928 ft 430 kts 248°
2026-05-06 06:47 44.51082 3.08727 36930 ft 430 kts 248°
2026-05-06 06:47 44.48971 3.00892 36936 ft 430 kts 248°
2026-05-06 06:48 44.46851 2.93063 36943 ft 430 kts 248°
2026-05-06 06:48 44.44730 2.85226 36948 ft 430 kts 248°
2026-05-06 06:49 44.42607 2.77389 36947 ft 431 kts 248°
2026-05-06 06:49 44.40477 2.69563 36952 ft 431 kts 248°
2026-05-06 06:50 44.38333 2.61733 36955 ft 431 kts 248°
2026-05-06 06:50 44.36184 2.53910 36956 ft 432 kts 248°
2026-05-06 06:51 44.34026 2.46078 36958 ft 432 kts 248°
2026-05-06 06:51 44.31865 2.38250 36958 ft 432 kts 248°
2026-05-06 06:52 44.29703 2.30434 36958 ft 432 kts 248°
2026-05-06 06:52 44.27534 2.22619 36955 ft 432 kts 248°
2026-05-06 06:53 44.25353 2.14818 36956 ft 432 kts 248°
2026-05-06 06:53 44.23166 2.07026 36957 ft 431 kts 248°
2026-05-06 06:54 44.20976 1.99245 36957 ft 431 kts 248°
2026-05-06 06:54 44.18792 1.91465 36959 ft 431 kts 248°
2026-05-06 06:55 44.16600 1.83688 36954 ft 431 kts 248°
2026-05-06 06:55 44.14402 1.75917 36953 ft 431 kts 248°
2026-05-06 06:56 44.12200 1.68146 36957 ft 431 kts 248°
2026-05-06 06:56 44.09988 1.60383 36953 ft 432 kts 248°
2026-05-06 06:57 44.07762 1.52626 36952 ft 432 kts 248°
2026-05-06 06:57 44.05542 1.44876 36955 ft 432 kts 248°
2026-05-06 06:58 44.03316 1.37122 36960 ft 432 kts 248°
2026-05-06 06:58 44.01080 1.29372 36963 ft 432 kts 248°
2026-05-06 06:59 43.98838 1.21635 36961 ft 432 kts 248°
2026-05-06 06:59 43.96587 1.13909 36964 ft 432 kts 248°
2026-05-06 07:00 43.94713 1.07485 36962 ft 431 kts 248°
2026-05-06 07:00 43.92464 0.99779 36965 ft 431 kts 248°
2026-05-06 07:01 43.90203 0.92068 36970 ft 431 kts 247°
2026-05-06 07:01 43.86944 0.85122 36966 ft 433 kts 228°
2026-05-06 07:02 43.82474 0.79477 36959 ft 435 kts 223°
2026-05-06 07:02 43.77966 0.73905 36968 ft 435 kts 224°
2026-05-06 07:03 43.73459 0.68331 36961 ft 435 kts 224°
2026-05-06 07:03 43.68945 0.62775 36968 ft 434 kts 224°
2026-05-06 07:04 43.64430 0.57242 36977 ft 434 kts 224°
2026-05-06 07:04 43.59914 0.51722 36969 ft 434 kts 224°
2026-05-06 07:05 43.55395 0.46199 36973 ft 434 kts 224°
2026-05-06 07:05 43.50880 0.40687 36973 ft 433 kts 224°
2026-05-06 07:06 43.46364 0.35191 36977 ft 433 kts 224°
2026-05-06 07:06 43.41849 0.29715 36985 ft 433 kts 224°
2026-05-06 07:07 43.37302 0.24213 36992 ft 432 kts 224°
2026-05-06 07:07 43.32789 0.18763 36993 ft 432 kts 224°
2026-05-06 07:08 43.28278 0.13324 37002 ft 431 kts 224°
2026-05-06 07:08 43.23771 0.07894 37010 ft 431 kts 224°
2026-05-06 07:09 43.19301 0.02518 37009 ft 430 kts 224°
2026-05-06 07:09 43.14804 -0.02884 37009 ft 430 kts 224°
2026-05-06 07:10 43.10302 -0.08269 37006 ft 430 kts 224°
2026-05-06 07:10 43.05797 -0.13641 37004 ft 430 kts 223°
2026-05-06 07:11 43.01293 -0.19006 36997 ft 429 kts 224°
2026-05-06 07:11 42.96795 -0.24363 36997 ft 429 kts 224°
2026-05-06 07:12 42.92300 -0.29701 36997 ft 429 kts 224°
2026-05-06 07:12 42.87801 -0.35034 37001 ft 429 kts 224°
2026-05-06 07:13 42.83298 -0.40365 37006 ft 428 kts 224°
2026-05-06 07:13 42.78301 -0.44808 37005 ft 435 kts 206°
2026-05-06 07:14 42.72639 -0.47789 37013 ft 436 kts 205°
2026-05-06 07:14 42.66980 -0.50772 37015 ft 436 kts 205°
2026-05-06 07:15 42.61335 -0.53747 37015 ft 435 kts 205°
2026-05-06 07:15 42.55684 -0.56713 37024 ft 435 kts 205°
2026-05-06 07:16 42.50042 -0.59671 37011 ft 434 kts 205°
2026-05-06 07:16 42.44407 -0.62616 37018 ft 434 kts 205°
2026-05-06 07:17 42.38784 -0.65546 37023 ft 433 kts 205°
2026-05-06 07:17 42.33162 -0.68472 37025 ft 432 kts 205°
2026-05-06 07:18 42.27555 -0.71376 37021 ft 431 kts 205°
2026-05-06 07:18 42.21952 -0.74282 37018 ft 431 kts 205°
2026-05-06 07:19 42.16352 -0.77179 37017 ft 431 kts 205°
2026-05-06 07:19 42.10752 -0.80064 37021 ft 430 kts 205°
2026-05-06 07:20 42.05165 -0.82948 37023 ft 430 kts 205°
2026-05-06 07:20 41.99583 -0.85824 37020 ft 430 kts 205°
2026-05-06 07:21 41.93996 -0.88688 37026 ft 430 kts 205°
2026-05-06 07:21 41.88416 -0.91550 37032 ft 430 kts 205°
2026-05-06 07:22 41.82826 -0.94405 37031 ft 430 kts 205°
2026-05-06 07:22 41.77273 -0.97238 37036 ft 430 kts 205°
2026-05-06 07:23 41.71652 -1.00106 37038 ft 429 kts 205°
2026-05-06 07:23 41.66222 -1.03221 37034 ft 423 kts 215°
2026-05-06 07:24 41.61689 -1.08066 37035 ft 416 kts 226°
2026-05-06 07:24 41.57366 -1.13292 37028 ft 416 kts 225°
2026-05-06 07:25 41.53087 -1.18427 37026 ft 416 kts 225°
2026-05-06 07:25 41.48758 -1.23629 37023 ft 416 kts 225°
2026-05-06 07:26 41.44482 -1.28756 37021 ft 416 kts 225°
2026-05-06 07:26 41.40177 -1.33910 37024 ft 416 kts 225°
2026-05-06 07:27 41.35878 -1.39064 36747 ft 415 kts 225°
2026-05-06 07:27 41.33740 -1.41620 36285 ft 410 kts 225°
2026-05-06 07:27 41.31633 -1.44134 35835 ft 405 kts 225°
2026-05-06 07:27 41.29541 -1.46628 35395 ft 402 kts 226°
2026-05-06 07:28 41.27467 -1.49098 34952 ft 399 kts 226°
2026-05-06 07:28 41.25404 -1.51558 34524 ft 398 kts 226°
2026-05-06 07:28 41.21299 -1.56440 33618 ft 395 kts 226°
2026-05-06 07:29 41.19244 -1.58875 33123 ft 395 kts 226°
2026-05-06 07:29 41.17191 -1.61308 32588 ft 396 kts 226°
2026-05-06 07:29 41.15140 -1.63741 32005 ft 396 kts 226°
2026-05-06 07:29 41.13087 -1.66178 31451 ft 397 kts 226°
2026-05-06 07:30 41.11024 -1.68624 30892 ft 398 kts 226°
2026-05-06 07:30 41.08957 -1.71069 30350 ft 399 kts 226°
2026-05-06 07:30 41.06879 -1.73516 29762 ft 401 kts 226°
2026-05-06 07:30 41.04788 -1.75979 29136 ft 403 kts 226°
2026-05-06 07:31 41.02693 -1.78452 28521 ft 405 kts 226°
2026-05-06 07:31 41.00594 -1.80930 27911 ft 403 kts 225°
2026-05-06 07:31 40.98507 -1.83384 27339 ft 400 kts 225°
2026-05-06 07:31 40.96431 -1.85821 26751 ft 398 kts 225°
2026-05-06 07:32 40.94365 -1.88241 26193 ft 395 kts 225°
2026-05-06 07:32 40.92316 -1.90644 25643 ft 392 kts 225°
2026-05-06 07:32 40.90308 -1.92998 25105 ft 390 kts 225°
2026-05-06 07:32 40.88285 -1.95367 24573 ft 387 kts 225°
2026-05-06 07:33 40.86275 -1.97720 24048 ft 385 kts 225°
2026-05-06 07:33 40.84273 -2.00057 23523 ft 383 kts 225°
2026-05-06 07:33 40.82281 -2.02376 22906 ft 381 kts 225°
2026-05-06 07:33 40.80299 -2.04687 22304 ft 379 kts 225°
2026-05-06 07:34 40.78328 -2.06988 21717 ft 378 kts 225°
2026-05-06 07:34 40.76367 -2.09278 21128 ft 376 kts 225°
2026-05-06 07:34 40.74411 -2.11563 20576 ft 375 kts 225°
2026-05-06 07:34 40.72590 -2.13985 20014 ft 370 kts 233°
2026-05-06 07:35 40.71140 -2.16760 19616 ft 366 kts 241°
2026-05-06 07:35 40.69826 -2.19633 19215 ft 366 kts 241°
2026-05-06 07:35 40.68503 -2.22498 18832 ft 365 kts 241°
2026-05-06 07:35 40.67179 -2.25352 18451 ft 365 kts 240°
2026-05-06 07:36 40.65858 -2.28194 18035 ft 364 kts 240°
2026-05-06 07:36 40.64539 -2.31033 17653 ft 363 kts 240°
2026-05-06 07:36 40.63227 -2.33865 17271 ft 362 kts 240°
2026-05-06 07:36 40.61920 -2.36690 16894 ft 361 kts 240°
2026-05-06 07:37 40.60615 -2.39512 16519 ft 361 kts 240°
2026-05-06 07:37 40.59310 -2.42330 16132 ft 360 kts 240°
2026-05-06 07:37 40.58007 -2.45139 15765 ft 359 kts 240°
2026-05-06 07:37 40.56705 -2.47936 15388 ft 358 kts 240°
2026-05-06 07:38 40.55402 -2.50728 15019 ft 358 kts 240°
2026-05-06 07:38 40.54101 -2.53514 14641 ft 357 kts 240°
2026-05-06 07:38 40.52802 -2.56294 14270 ft 357 kts 240°
2026-05-06 07:38 40.51503 -2.59072 13899 ft 356 kts 240°
2026-05-06 07:39 40.50211 -2.61839 13499 ft 355 kts 240°
2026-05-06 07:39 40.48922 -2.64604 13128 ft 354 kts 240°
2026-05-06 07:39 40.47641 -2.67355 12756 ft 352 kts 239°
2026-05-06 07:39 40.46363 -2.70095 12390 ft 351 kts 239°
2026-05-06 07:40 40.45088 -2.72818 12023 ft 349 kts 239°
2026-05-06 07:40 40.43815 -2.75527 11658 ft 348 kts 239°
2026-05-06 07:40 40.42546 -2.78223 11293 ft 346 kts 239°
2026-05-06 07:40 40.41284 -2.80907 10935 ft 345 kts 239°
2026-05-06 07:41 40.40029 -2.83567 10637 ft 337 kts 239°
2026-05-06 07:41 40.38820 -2.86125 10513 ft 323 kts 239°
2026-05-06 07:41 40.37662 -2.88576 10388 ft 310 kts 239°
2026-05-06 07:41 40.36548 -2.90935 10265 ft 298 kts 239°
2026-05-06 07:42 40.35475 -2.93207 10095 ft 290 kts 239°
2026-05-06 07:42 40.34424 -2.95430 9964 ft 285 kts 239°
2026-05-06 07:42 40.33383 -2.97636 9882 ft 285 kts 239°
2026-05-06 07:42 40.32345 -2.99838 9601 ft 283 kts 239°
2026-05-06 07:43 40.31311 -3.02026 9335 ft 282 kts 239°
2026-05-06 07:43 40.30282 -3.04200 9080 ft 280 kts 239°
2026-05-06 07:43 40.29255 -3.06367 8817 ft 279 kts 239°
2026-05-06 07:43 40.28233 -3.08524 8555 ft 278 kts 239°
2026-05-06 07:44 40.27216 -3.10673 8289 ft 277 kts 239°
2026-05-06 07:44 40.26650 -3.12163 8123 ft 276 kts 250°
2026-05-06 07:44 40.26207 -3.14595 7868 ft 274 kts 265°
2026-05-06 07:44 40.26278 -3.17071 7610 ft 273 kts 279°
2026-05-06 07:45 40.26614 -3.19513 7365 ft 272 kts 280°
2026-05-06 07:45 40.26937 -3.21947 7112 ft 270 kts 279°
2026-05-06 07:45 40.27251 -3.24338 6859 ft 263 kts 279°
2026-05-06 07:45 40.27652 -3.27411 6535 ft 255 kts 279°
2026-05-06 07:46 40.27852 -3.28943 6371 ft 250 kts 279°
2026-05-06 07:46 40.28143 -3.31165 6111 ft 245 kts 279°
2026-05-06 07:46 40.28534 -3.33304 5857 ft 239 kts 290°
2026-05-06 07:46 40.29124 -3.35314 5603 ft 234 kts 291°
2026-05-06 07:47 40.29701 -3.37295 5352 ft 232 kts 291°
2026-05-06 07:47 40.30307 -3.39231 5101 ft 228 kts 301°
2026-05-06 07:47 40.31391 -3.40652 4993 ft 217 kts 324°
2026-05-06 07:47 40.32608 -3.41712 4991 ft 205 kts 329°
2026-05-06 07:48 40.33775 -3.42749 4996 ft 203 kts 325°
2026-05-06 07:48 40.34907 -3.43854 4820 ft 203 kts 324°
2026-05-06 07:48 40.36023 -3.44976 4566 ft 202 kts 323°
2026-05-06 07:48 40.37131 -3.46095 4305 ft 201 kts 324°
2026-05-06 07:49 40.38238 -3.47214 4023 ft 200 kts 324°
2026-05-06 07:49 40.39337 -3.48326 3755 ft 199 kts 323°
2026-05-06 07:49 40.40429 -3.49431 3491 ft 198 kts 324°
2026-05-06 07:49 40.41505 -3.50520 3227 ft 192 kts 324°
2026-05-06 07:50 40.42528 -3.51558 2959 ft 182 kts 323°
2026-05-06 07:50 40.43513 -3.52555 2702 ft 175 kts 323°
2026-05-06 07:50 40.44417 -3.53472 2473 ft 156 kts 323°
2026-05-06 07:50 40.45255 -3.54321 2261 ft 149 kts 323°
2026-05-06 07:51 40.46063 -3.55141 2059 ft 146 kts 323°
2026-05-06 07:51 40.46866 -3.55951 1971 ft 132 kts 323°
2026-05-06 07:51 40.47471 -3.56547 1992 ft 84 kts 322°
2026-05-06 07:51 40.47762 -3.56895 1995 ft 26 kts 278°
2026-05-06 07:52 40.47786 -3.57011 1998 ft 1 kts 291°
2026-05-06 07:52 40.47787 -3.57014 1997 ft 1 kts 290°
2026-05-06 07:52 40.47797 -3.57086 2000 ft 10 kts 253°
2026-05-06 07:52 40.47738 -3.57105 1999 ft 12 kts 151°
2026-05-06 07:53 40.47658 -3.57026 1997 ft 17 kts 142°
2026-05-06 07:53 40.47553 -3.56919 1992 ft 21 kts 142°
2026-05-06 07:53 40.47435 -3.56797 1990 ft 22 kts 141°
2026-05-06 07:53 40.47306 -3.56666 1986 ft 25 kts 142°
2026-05-06 07:54 40.47162 -3.56522 1981 ft 27 kts 146°
2026-05-06 07:54 40.46979 -3.56448 1977 ft 29 kts 179°
2026-05-06 07:54 40.46881 -3.56537 1975 ft 18 kts 268°
2026-05-06 07:54 40.46898 -3.56701 1977 ft 18 kts 278°
2026-05-06 07:55 40.46906 -3.56784 1975 ft 0 kts 277°